Tracking 35274 objects as of 10-Sep-2026
HD Live streaming from Space Station
objects crossing your sky now

IRIDIUM 33 DEB


IRIDIUM 33 DEB is no longer on orbit


NORAD ID: 33867
Int'l Code: 1997-051AL
Launch date: September 14, 1997
Source: United States (US)
Launch site: TYURATAM MISSILE AND SPACE COMPLEX (TTMTR)
Decay date: 2025-12-24

Note: This is SATELLITE DEBRIS
Your satellite tracking list
Your tracking list is empty




NASA's NSSDC Master Catalog

Two Line Element Set (TLE):
1 33867U 97051AL  25358.51585250  .16234982 -13580-5  54325-2 0  9992
2 33867  86.3666 343.8502 0009090 136.2673 223.9349 16.25725405896973
Source of the keplerian elements: AFSPC